CW2989 Weather Reports


time (UTC)temp
C
wind
direction
speed
KPH
gust
KPH
rain 1hr
cm
rain 24hr
cm
rain mn
cm
humidity
%
barometer
mb
20240614131641 25 243 0.0 3.2 0.00 0.00 0.00 91 998.1
20240614130654 25 244 0.0 3.2 0.00 0.00 0.00 92 998.0
20240614124626 24 244 0.0 1.6 0.00 0.00 0.00 93 997.8
20240614122534 23 243 0.0 3.2 0.00 0.00 0.00 94 998.0
20240614121550 23 242 0.0 0.0 0.00 0.00 0.00 94 998.0
20240614120531 23 242 0.0 0.0 0.00 0.00 0.00 94 998.0
20240614115529 23 242 0.0 0.0 0.00 0.00 0.00 94 998.0
20240614114534 23 243 0.0 0.0 0.00 0.00 0.00 94 998.0
20240614113524 23 243 0.0 0.0 0.00 0.00 0.00 94 997.7
20240614112509 23 243 0.0 0.0 0.00 0.00 0.00 93 997.6
20240614111453 23 243 0.0 0.0 0.00 0.00 0.00 93 997.6
20240614105327 23 243 0.0 0.0 0.00 0.00 0.00 92 997.4
20240614104329 23 243 0.0 0.0 0.00 0.00 0.00 92 997.0
20240614103343 23 243 0.0 0.0 0.00 0.00 0.00 92 997.0
20240614102333 23 243 0.0 0.0 0.00 0.00 0.00 92 996.9
20240614101348 23 243 0.0 3.2 0.00 0.00 0.00 92 996.5
20240614100326 23 242 0.0 1.6 0.00 0.00 0.00 92 996.5
20240614095332 23 242 0.0 1.6 0.00 0.00 0.00 92 996.5
20240614094319 23 242 0.0 0.0 0.00 0.00 0.00 91 996.4
20240614092146 23 242 0.0 1.6 0.00 0.00 0.00 91 996.4
20240614091123 23 242 0.0 0.0 0.00 0.00 0.00 89 996.4
20240614090109 23 242 0.0 0.0 0.00 0.00 0.00 89 996.4
20240614085046 23 242 0.0 0.0 0.00 0.00 0.00 89 996.2
20240614084109 24 242 0.0 0.0 0.00 0.00 0.00 88 996.4
20240614083103 24 242 0.0 0.0 0.00 0.00 0.00 87 996.4
20240614081022 25 242 0.0 0.0 0.00 0.00 0.00 87 996.4
20240614075957 25 242 0.0 3.2 0.00 0.00 0.00 87 996.4
20240614074941 25 240 0.0 3.2 0.00 0.00 0.00 86 996.4
20240614073921 25 240 0.0 6.4 0.00 0.00 0.00 86 996.4
20240614072929 25 233 0.0 6.4 0.00 0.00 0.00 86 996.4
20240614070759 25 229 0.0 0.0 0.00 0.00 0.00 85 996.4
20240614065808 25 229 0.0 3.2 0.00 0.00 0.00 85 996.4
20240614064735 25 223 0.0 3.2 0.00 0.00 0.00 85 996.4
20240614063718 25 220 0.0 1.6 0.00 0.00 0.00 85 996.4
20240614062718 25 220 0.0 0.0 0.00 0.00 0.00 84 996.6
20240614061724 25 220 0.0 0.0 0.00 0.00 0.00 84 996.6
20240614060709 25 220 0.0 0.0 0.00 0.00 0.00 84 996.6
20240614055645 25 220 0.0 0.0 0.00 0.00 0.00 84 996.7
20240614054658 26 220 0.0 0.0 0.00 0.00 0.00 84 996.7
20240614053708 26 220 0.0 0.0 0.00 0.00 0.00 84 996.9
20240614052658 26 220 0.0 0.0 0.00 0.00 0.00 84 996.9
20240614051652 26 220 0.0 1.6 0.00 0.00 0.00 84 996.9
20240614045457 26 219 0.0 0.0 0.00 0.00 0.00 83 996.8
20240614044454 26 219 0.0 0.0 0.00 0.00 0.00 82 996.8
20240614043439 26 219 0.0 0.0 0.00 0.00 0.00 82 996.6
20240614042503 26 219 0.0 0.0 0.00 0.00 0.00 82 996.7
20240614041526 26 219 0.0 0.0 0.00 0.00 0.00 81 996.7
20240614035436 26 219 0.0 0.0 0.00 0.00 0.00 80 996.5
20240614034459 27 219 0.0 0.0 0.00 0.00 0.00 80 996.5
20240614033437 27 219 0.0 0.0 0.00 0.00 0.00 79 996.4
20240614032427 27 219 0.0 0.0 0.00 0.00 0.00 78 996.2
20240614025139 27 219 0.0 0.0 0.00 0.00 0.00 76 995.8
20240614024117 27 219 0.0 0.0 0.00 0.00 0.00 76 995.5
20240614023139 27 219 0.0 0.0 0.00 0.00 0.00 75 995.5
20240614022152 28 219 0.0 0.0 0.00 0.00 0.00 74 995.4
20240614021142 28 219 0.0 0.0 0.00 0.00 0.00 73 995.3
20240614020148 28 219 0.0 1.6 0.00 0.00 0.00 72 995.3
20240614015142 28 219 0.0 0.0 0.00 0.00 0.00 72 995.3
20240614013015 29 216 0.0 6.4 0.00 0.00 0.00 70 995.3
20240614012029 30 200 0.0 3.2 0.00 0.00 0.00 69 995.3
20240614010955 30 176 0.0 1.6 0.00 0.00 0.00 69 995.3
20240614005932 30 214 0.0 1.6 0.00 0.00 0.00 68 995.3
20240614002707 31 181 1.6 6.4 0.00 0.00 0.00 66 995.2
20240614001709 31 279 1.6 6.4 0.00 0.00 0.00 66 995.2
20240614000724 32 147 0.0 6.4 0.00 0.00 0.00 64 995.2
20240613235746 32 250 0.0 6.4 0.00 0.00 0.00 63 995.2
20240613234749 32 148 0.0 0.0 0.00 0.00 0.00 63 995.2
20240613233723 32 264 0.0 6.4 0.00 0.00 0.00 63 995.2
20240613232727 32 250 1.6 6.4 0.00 0.00 0.00 62 995.3
20240613231658 32 202 1.6 4.8 0.00 0.00 0.00 61 995.3
20240613230635 32 153 1.6 6.4 0.00 0.00 0.00 62 995.3
20240613225610 33 182 1.6 8.0 0.00 0.00 0.00 62 995.3
20240613224625 33 155 1.6 8.0 0.00 0.00 0.00 61 995.3
20240613222505 32 267 1.6 11.3 0.00 0.00 0.00 61 995.4
20240613221431 33 189 1.6 11.3 0.00 0.00 0.00 60 995.4
20240613220359 33 281 1.6 9.7 0.00 0.00 0.00 61 995.6
20240613215404 33 257 1.6 9.7 0.00 0.00 0.00 63 995.7
20240613214416 33 263 1.6 9.7 0.00 0.00 0.00 61 995.7
20240613213400 32 146 3.2 9.7 0.00 0.00 0.00 61 995.8
20240613212352 32 145 1.6 6.4 0.00 0.00 0.00 64 996.0
20240613211339 33 189 0.0 8.0 0.00 0.00 0.00 59 996.1
20240613210341 33 229 1.6 8.0 0.00 0.00 0.00 62 996.1
20240613205327 32 206 0.0 4.8 0.00 0.00 0.00 62 996.3
20240613203156 32 145 1.6 8.0 0.00 0.00 0.00 60 996.5
20240613195857 32 273 1.6 8.0 0.00 0.00 0.00 62 996.8
20240613194854 32 112 0.0 9.7 0.00 0.00 0.00 64 996.8
20240613193908 32 186 1.6 9.7 0.00 0.00 0.00 64 997.0
20240613192907 32 148 0.0 3.2 0.00 0.00 0.00 66 997.0
20240613191842 32 252 0.0 3.2 0.00 0.00 0.00 61 997.0
20240613190814 32 261 0.0 4.8 0.00 0.00 0.00 66 997.1
20240613185827 32 254 1.6 9.7 0.00 0.00 0.00 64 997.4
20240613183734 32 234 0.0 8.0 0.00 0.00 0.00 64 997.5
20240613182710 31 256 0.0 14.5 0.00 0.00 0.00 65 997.6
20240613181640 31 260 3.2 14.5 0.00 0.00 0.00 70 997.6
20240613180655 31 249 1.6 8.0 0.00 0.00 0.00 67 997.9
20240613175702 31 276 3.2 12.9 0.00 0.00 0.00 67 998.0
20240613174727 31 250 3.2 12.9 0.00 0.00 0.00 68 998.0
20240613173732 31 261 1.6 8.0 0.00 0.00 0.00 68 998.1
20240613172703 31 255 1.6 8.0 0.00 0.00 0.00 69 998.1
20240613171700 30 146 1.6 8.0 0.00 0.00 0.00 72 998.1
20240613170714 30 254 1.6 1.6 0.00 0.00 0.00 71 998.1
20240613165711 30 264 1.6 6.4 0.00 0.00 0.00 71 998.1
20240613164647 29 257 1.6 6.4 0.00 0.00 0.00 75 998.1
20240613162530 28 261 0.0 0.0 0.00 0.00 0.00 79 998.1
20240613160347 28 263 1.6 8.0 0.00 0.00 0.00 77 998.1
20240613155346 28 234 1.6 9.7 0.00 0.00 0.00 77 998.1
20240613152125 27 264 1.6 8.0 0.00 0.00 0.00 84 998.2
20240613151054 27 261 1.6 8.0 0.00 0.00 0.00 83 998.2
20240613142727 26 211 0.0 3.2 0.00 0.00 0.00 90 998.2
20240613141702 25 211 0.0 4.8 0.00 0.00 0.00 92 998.2
20240613140656 25 203 0.0 4.8 0.00 0.00 0.00 94 998.2
20240613135624 24 199 0.0 0.0 0.00 0.00 0.00 96 997.9
20240613133535 23 199 0.0 1.6 0.00 0.00 0.00 97 997.7